Location: Unspecified
(69.3509°N, 0.0000°E)
Time: 09:25:28
(UTC+00:00)

NOAA 16 DEB - Visible Passes

Search period start: 04 April 2026 00:00
Search period end: 14 April 2026 00:00
Orbit: 793 x 803 km, 98.6° (Epoch: 29 March)

Date Brightness Start Highest point End Pass type
(mag) Time Alt. Az. Time Alt. Az. Time Alt. Az.
4 Apr ? 20:26:50 10° S 20:31:57 51° WSW 20:37:06 10° NNW visible
4 Apr ? 22:09:06 10° SW 22:12:48 19° W 22:16:33 10° NNW visible
5 Apr ? 21:40:47 10° SW 21:45:04 25° W 21:49:24 10° NNW visible
6 Apr ? 21:12:42 10° SSW 21:17:25 33° W 21:22:09 10° NNW visible
6 Apr ? 22:56:44 10° W 22:58:46 12° WNW 23:00:48 10° NW visible
7 Apr ? 20:44:51 10° S 20:49:50 43° W 20:54:51 10° NNW visible
7 Apr ? 22:27:40 10° WSW 22:30:53 16° WNW 22:34:06 10° NW visible
8 Apr ? 21:59:07 10° SW 22:03:04 21° W 22:07:02 10° NNW visible
9 Apr ? 21:30:53 10° SW 21:35:20 28° W 21:39:50 10° NNW visible
10 Apr ? 21:02:51 10° SSW 21:07:41 36° W 21:12:32 10° NNW visible
10 Apr ? 22:46:23 10° W 22:48:55 13° WNW 22:51:28 10° NW visible
11 Apr ? 22:17:32 10° WSW 22:21:02 18° WNW 22:24:33 10° NW visible
12 Apr ? 21:49:04 10° SW 21:53:14 23° W 21:57:24 10° NNW visible
13 Apr ? 21:20:53 10° SSW 21:25:30 30° W 21:30:08 10° NNW visible
13 Apr ? 23:05:25 10° W 23:06:55 11° WNW 23:08:27 10° NW visible
